FENGYUN 1C DEB, 35089

Orbit data source: Space-Track

FENGYUN 1C DEB, 35089 is space debris in SSO originally from a launch on Mon, 10 May 1999 UTC launched from the Taiyaun Space Center, China (TSC). Fengyun 1C debris stems from the Chinese weather satellite Fengyun-1C, which was intentionally destroyed by a Chinese anti-satellite missile in 2007. This event dramatically increased the amount of space debris, with thousands of trackable fragments posing hazards to satellites and human spaceflight. The Fengyun 1C debris cloud has become a focal point in discussions about space sustainability and the need for international regulations to prevent the creation of new debris.

Loading next visibility...
Identifier
35089, 1999-025DJR
Orbit
SSO
Country
Flag of CNCN / PRC
Related business
Manufacturer
Unknown
Mission
Spacecraft
Bus & Motor
Unknown
Mass
Unknown
Launch date (UTC)
1999-05-10 (27 years ago)
Launch vehicle
Unknown
Launch site
Taiyaun Space Center, China (TSC)
Object type
Payload
Rocket body
Debris
Shape & HBR
Unknown shape, 0.1 m
Radar Cross Section
Medium (>0.1 m² and <1 m²)

Expand to show TLE details & history
Last TLE update: 15 hours ago

TLE from 15 hours ago
0 FENGYUN 1C DEB
1 35089U 99025DJR 26238.23788830  .00001106  00000-0  53643-3 0  9992
2 35089  98.5568 244.5825 0028482  41.3781 318.9547 14.20111327645156
Epoch: 2026-08-26T05:42Z
TLE epoch observation values (Epoch: 2026-08-26T05:42:33.549Z)
Latitude
0.00005°
Longitude
-175.55105°
Altitude
812.445 km
Speed
7.455 km/s
True Right ascension
16h 18m 19s
True Declination
0° 00' 00"
Sunlit
Object was in daylight at epoch
Visualization orbit readout
Latitude
Unknown
Longitude
Unknown
Altitude
Unknown
Speed
Unknown
Apparent Right ascension
Unknown
Apparent Declination
Unknown
Sunlit
N/A
Visualization observer readout
Local Sidereal Time
12:04:56
Azimuth
Unknown
Elevation
Unknown
Doppler factor
Unknown
Orbital elements
Apogee altitude
842.635 km
Perigee altitude
801.62 km
Semi-major axis
7,200.264 km
Eccentricity
0.00285
Inclination
98.5568°
RAAN
244.5825°
Arg. of periapsis
41.3781°
True anomaly
318.7398°
Mean anomaly
318.9547°
Eccentric anomaly
318.84731°
Mean motion
3.55239 °/min
Orbital period
101.34 mins
BSTAR
0.00053643
Loading maneuver chart data...
Computing Atmospheric mass density...

Documentation

Showing up to 5 results
|